Regional Weather Roundup
Issued by NWS

Home | Current Version | Previous Version | Text Only | Print | Product List | Glossary On
Versions: 1 2 3 4 5 6 7 8 9 10 11 12 13 14 15 16 17 18 19 20 21 22 23 24 25 26 27 28 29 30 31 32 33 34 35 36 37 38 39 40 41 42 43 44 45 46 47 48 49 50
740
ASUS46 KSEW 062010
RWRWA

WASHINGTON REGIONAL WEATHER ROUNDUP
NATIONAL WEATHER SERVICE SEATTLE WA
1200 PM PST TUE DEC 06 2016

NOTE:"FAIR" INDICATES FEW OR NO CLOUDS BELOW 12,000 FEET WITH NO
SIGNIFICANT WEATHER AND/OR OBSTRUCTIONS TO VISIBILITY.

WAZ507-509-555>559-062100-
SEATTLE, TACOMA, EVERETT, AND VICINITY

CITY           SKY/WX    TMP DP  RH WIND       PRES   REMARKS
EVERETT        SUNNY     35  30  82 NW6       30.16S
BOEING FIELD   MOSUNNY   40  32  73 VRB3      30.18S
RENTON         SUNNY     39  31  72 N9        30.18S
SEATAC AIRPORT SUNNY     38  31  76 N12       30.16S
JBLM-MCCHORD   NOT AVBL
PUYALLUP       PTSUNNY   37  34  87 CALM      30.16R
BREMERTON      SUNNY     37  27  65 N12       30.18R
JBLM-FT LEWIS  NOT AVBL
TACOMA NARROWS SUNNY     38  27  64 N15       30.17R
$$

WAZ001-503-506-510-514-515-062100-
NORTH INTERIOR

CITY           SKY/WX    TMP DP  RH WIND       PRES   REMARKS
BELLINGHAM     SUNNY     36  13  38 N20G33    30.20S
FRIDAY HARBOR  SUNNY     38  17  42 N15G22    30.23R
PORT ANGELES   SUNNY     34  32  92 CALM      30.23R
EDIZ HOOK      FAIR      38  23  53 N7        30.24R
PORT TOWNSEND  FAIR      39  23  52 NW13G22   30.20S
NAS WHIDBEY    SUNNY     40  21  46 N8        30.24R
ARLINGTON      SUNNY     36  25  64 N3        30.20S
BURLINGTON     NOT AVBL
$$

WAZ020-022-039-040-504-511-512-062100-
SOUTHWEST INTERIOR

CITY           SKY/WX    TMP DP  RH WIND       PRES   REMARKS
SHELTON        PTSUNNY   40  31  70 CALM      30.16R
OLYMPIA        MOSUNNY   40  32  73 E6        30.17R
CHEHALIS       NOT AVBL
KELSO          CLOUDY    38  33  82 N5        30.17R
VANCOUVER      MOSUNNY   42  32  67 VRB5      30.14R
SCAPPOOSE, OR  MOSUNNY   41  33  73 N6        30.15R
PORTLAND, OR   MOSUNNY   43  32  65 N5        30.14R
$$

WAZ021-516-517-062100-
WASHINGTON COAST

CITY           SKY/WX    TMP DP  RH WIND       PRES   REMARKS
FORKS          SUNNY     37  27  67 NE12      30.19R
HOQUIAM        SUNNY     39  34  82 N6        30.18R
ASTORIA, OR    MOSUNNY   43  32  65 NE9       30.15S
$$

WAZ019-023-024-040-567>569-062100-
CASCADE MOUNTAINS AND COLUMBIA GORGE

CITY           SKY/WX    TMP DP  RH WIND       PRES   REMARKS
STAMPEDE PASS  SUNNY     20  20 100 CALM      29.98R
TROUTDALE, OR  MOSUNNY   43  30  60 NE5       30.13S
THE DALLES, OR CLOUDY    38  33  82 CALM      30.16R
$$

WAZ026-027-041>044-520-521-062100-
EAST SLOPES

CITY           SKY/WX    TMP DP  RH WIND       PRES   REMARKS
OMAK           SUNNY     31  10  41 N22G28    30.15S WCI  18
WENATCHEE      SUNNY     31  22  69 W7        30.12S
ELLENSBURG     SUNNY     31  22  69 W3        30.09R
YAKIMA         PTSUNNY   37  19  48 VRB3      30.13R
$$

WAZ028-034-035-062100-
COLUMBIA BASIN

CITY           SKY/WX    TMP DP  RH WIND       PRES   REMARKS
EPHRATA        SUNNY     29  14  53 N17       30.09F WCI  17
MOSES LAKE     SUNNY     31  19  61 N17       30.10S WCI  19
PASCO          CLOUDY    33  26  75 NW12      30.15R WCI  24
HERMISTON, OR  LGT SNOW  32  26  78 N12       30.12R WCI  23
$$

WAZ036>038-062100-
NORTHEAST WASHINGTON

CITY           SKY/WX    TMP DP  RH WIND       PRES   REMARKS
SPOKANE GEIGER PTSUNNY   29  13  51 N12       29.99S WCI  19
SPOKANE FELTS  SUNNY     32  13  45 NE3       30.02F
FAIRCHILD AFB  NOT AVBL
COEURDALENE,ID SUNNY     29  15  56 N20       29.99S WCI  16
DEER PARK      SUNNY     29  10  45 NE14      30.02F WCI  18
$$

WAZ029>033-062100-
SOUTHEAST WASHINGTON

CITY           SKY/WX    TMP DP  RH WIND       PRES   REMARKS
PULLMAN        LGT SNOW  25  21  85 NW5       29.96S FOG
LEWISTON, ID   LGT SNOW  31  27  85 W3        30.00R FOG
WALLA WALLA    LGT SNOW  30  28  92 W6        30.05R VSB 3/4
PENDLETON, OR  LGT SNOW  28  26  92 NW12      30.05R FOG     WCI  18
$$




USA.gov is the U.S. government's official web portal to all federal, state and local government web resources and services.